User: anonymous   Login
Location: Capvern
(43.1036°N, 0.3160°E)
Time: 19:04:02
(UTC+00:00)
Language:

Cosmos 1544 Rocket - Orbit

View from above orbital plane
View from above orbital plane
View from above satellite
View from above satellite

Ground track
Ground track

The orbit data is extracted from the following two-line orbital elements,

1 14820U 84027B   22022.54688470  .00000169  00000-0  17493-4 0  9990
2 14820  82.5411 215.5040 0017190 276.3619  83.5639 14.83746575 24007
Epoch (UTC): 22 January 2022 13:07:30
Eccentricity: 0.0017190
inclination: 82.5411°
perigee height: 605 km
apogee height: 629 km
right ascension of ascending node: 215.5040°
argument of perigee: 276.3619°
revolutions per day: 14.83746575
mean anomaly at epoch: 83.5639°
orbit number at epoch: 2400

The dashed part of the orbit path shows where the satellite is in the earth's shadow,  

DLR